This demonstration page uses our WeatherBlox Daily Observations layout. Learn more.

Hourly Observations for April 29, 2019

Temp ( °F °C ) Dew Point ( °F °C ) Humidity (%) Winds ( mph kmh ) Pressure ( in mb ) Visibility ( mi km ) Precip ( " mm )
12:15 am 00:15 Clear 50 10 43 6 76 76 Calm 30.33 1027 10 16.09344 0 0
12:35 am 00:35 Clear 48 9 43 6 82 82 Calm 30.36 1028 10 16.09344 0 0
12:55 am 00:55 Clear 45 7 43 6 93 93 Calm 30.36 1028 10 16.09344 0 0
1:15 am 01:15 Clear 45 7 43 6 93 93 Calm 30.36 1028 10 16.09344 0 0
1:35 am 01:35 Clear 43 6 41 5 93 93 Calm 30.36 1028 10 16.09344 0 0
1:55 am 01:55 Clear 43 6 41 5 93 93 Calm 30.39 1029 10 16.09344 0 0
2:15 am 02:15 Clear 43 6 43 6 100 100 Calm 30.36 1028 10 16.09344 0 0
2:35 am 02:35 Clear 41 5 41 5 100 100 Calm 30.36 1028 10 16.09344 0 0
2:55 am 02:55 Clear 41 5 41 5 100 100 Calm 30.36 1028 10 16.09344 0 0
3:15 am 03:15 Clear 41 5 41 5 100 100 Calm 30.36 1028 10 16.09344 0 0
3:35 am 03:35 Clear 39 4 39 4 100 100 Calm 30.36 1028 10 16.09344 0 0
3:55 am 03:55 Partly Cloudy 37 3 37 3 100 100 Calm 30.39 1029 10 16.09344 0 0
4:15 am 04:15 Partly Cloudy 39 4 39 4 100 100 N 3 6 30.39 1029 10 16.09344 0 0
4:35 am 04:35 Clear 39 4 39 4 100 100 Calm 30.39 1029 10 16.09344 0 0
4:55 am 04:55 Clear 37 3 37 3 100 100 Calm 30.39 1029 10 16.09344 0 0
5:15 am 05:15 Clear 37 3 37 3 100 100 Calm 30.39 1029 10 16.09344 0 0
5:35 am 05:35 Clear 37 3 37 3 100 100 Calm 30.42 1030 10 16.09344 0 0
5:55 am 05:55 Clear 37 3 37 3 100 100 Calm 30.42 1030 10 16.09344 0 0
6:15 am 06:15 Sunny 37 3 37 3 100 100 Calm 30.42 1030 10 16.09344 0 0
6:35 am 06:35 Sunny 37 3 37 3 100 100 Calm 30.42 1030 10 16.09344 0 0
6:55 am 06:55 Sunny 37 3 37 3 100 100 Calm 30.45 1031 10 16.09344 0 0
7:15 am 07:15 Sunny 39 4 39 4 100 100 Calm 30.45 1031 10 16.09344 0 0
7:35 am 07:35 Sunny 41 5 41 5 100 100 Calm 30.45 1031 10 16.09344 0 0
7:55 am 07:55 Partly Cloudy 43 6 43 6 100 100 Calm 30.45 1031 10 16.09344 0 0
8:15 am 08:15 Mostly Cloudy 45 7 43 6 93 93 Calm 30.48 1032 10 16.09344 0 0
8:35 am 08:35 Cloudy 46 8 37 3 71 71 Calm 30.48 1032 10 16.09344 0 0
8:55 am 08:55 Mostly Cloudy 48 9 37 3 66 66 ENE 5 7 30.48 1032 10 16.09344 0 0
9:15 am 09:15 Sunny 50 10 37 3 62 62 ESE 3 6 30.48 1032 10 16.09344 0 0
9:35 am 09:35 Sunny 50 10 36 2 58 58 ENE 6 9 30.45 1031 10 16.09344 0 0
9:55 am 09:55 Mostly Cloudy 52 11 36 2 54 54 SE 7 11 30.45 1031 10 16.09344 0 0
10:15 am 10:15 Cloudy 52 11 34 1 50 50 Calm 30.45 1031 10 16.09344 0 0
10:35 am 10:35 Cloudy 52 11 32 0 47 47 ESE 3 6 30.45 1031 10 16.09344 0 0
10:55 am 10:55 Cloudy 52 11 34 1 50 50 Calm 30.45 1031 10 16.09344 0 0
11:15 am 11:15 Cloudy 54 12 32 0 44 44 SE 5 7 30.45 1031 10 16.09344 0 0
11:35 am 11:35 Cloudy 54 12 32 0 44 44 Calm 30.45 1031 10 16.09344 0 0
11:55 am 11:55 Cloudy 55 13 32 0 41 41 SSE 5 7 30.45 1031 10 16.09344 0 0
12:15 pm 12:15 Cloudy 55 13 32 0 41 41 SE 7 11 30.42 1030 10 16.09344 0 0
12:35 pm 12:35 Cloudy 57 14 36 2 44 44 Calm 30.39 1029 10 16.09344 0 0
12:55 pm 12:55 Cloudy 59 15 34 1 39 39 S 8 13 30.39 1029 10 16.09344 0 0
1:15 pm 13:15 Cloudy 59 15 32 0 36 36 S 8 13 30.36 1028 10 16.09344 0 0
1:35 pm 13:35 Cloudy 59 15 32 0 36 36 SSW 6 9 30.36 1028 10 16.09344 0 0
1:55 pm 13:55 Cloudy 61 16 34 1 36 36 S 12 19 30.33 1027 10 16.09344 0 0
2:15 pm 14:15 Cloudy 61 16 34 1 36 36 SSE 6 9 30.33 1027 10 16.09344 0 0
2:35 pm 14:35 Cloudy 61 16 36 2 39 39 S 9 15 30.3 1026 10 16.09344 0 0
2:55 pm 14:55 Cloudy 63 17 36 2 37 37 S 12 19 30.3 1026 10 16.09344 0 0
3:15 pm 15:15 Mostly Cloudy 63 17 36 2 37 37 S 8 13 30.3 1026 10 16.09344 0 0
3:35 pm 15:35 Cloudy 63 17 36 2 37 37 S 13 20 30.27 1025 10 16.09344 0 0
3:55 pm 15:55 Mostly Cloudy 63 17 37 3 39 39 S 14 22 30.27 1025 10 16.09344 0 0
4:15 pm 16:15 Mostly Cloudy 63 17 37 3 39 39 S 13 20 30.24 1024 10 16.09344 0 0
4:35 pm 16:35 Cloudy 63 17 37 3 39 39 S 15 24 30.24 1024 10 16.09344 0 0
4:55 pm 16:55 Cloudy 63 17 39 4 42 42 S 12 19 30.24 1024 10 16.09344 0 0
5:15 pm 17:15 Cloudy 63 17 41 5 45 45 SSE 9 15 30.27 1025 10 16.09344 0 0
5:35 pm 17:35 Cloudy 61 16 43 6 52 52 S 8 13 30.27 1025 10 16.09344 0 0
5:55 pm 17:55 Cloudy 61 16 43 6 52 52 SSE 12 19 30.27 1025 10 16.09344 0 0
6:15 pm 18:15 Mostly Cloudy 61 16 43 6 52 52 SSE 13 20 30.24 1024 10 16.09344 0 0
6:35 pm 18:35 Partly Cloudy 61 16 45 7 55 55 S 12 19 30.27 1025 10 16.09344 0 0
6:55 pm 18:55 Mostly Cloudy 59 15 45 7 59 59 SSE 9 15 30.21 1023 10 16.09344 0 0
7:15 pm 19:15 Mostly Cloudy 59 15 45 7 59 59 S 9 15 30.24 1024 10 16.09344 0 0
7:35 pm 19:35 Mostly Cloudy 59 15 45 7 59 59 S 9 15 30.24 1024 10 16.09344 0 0
7:55 pm 19:55 Cloudy 59 15 46 8 63 63 S 10 17 30.24 1024 10 16.09344 0 0
8:35 pm 20:35 Mostly Cloudy 57 14 48 9 72 72 SSE 14 22 30.18 1022 10 16.09344 0 0
8:55 pm 20:55 Cloudy 57 14 48 9 72 72 SSE 12 19 30.21 1023 10 16.09344 0 0
9:15 pm 21:15 Cloudy 57 14 50 10 77 77 SSE 13 20 30.21 1023 10 16.09344 0 0
9:35 pm 21:35 Cloudy 57 14 50 10 77 77 S 12 19 30.21 1023 10 16.09344 0 0
9:55 pm 21:55 Cloudy 57 14 50 10 77 77 S 7 11 30.24 1024 10 16.09344 0 0
10:15 pm 22:15 Mostly Cloudy 55 13 52 11 88 88 S 6 9 30.21 1023 10 16.09344 0 0
10:35 pm 22:35 Mostly Cloudy 55 13 52 11 88 88 SSE 6 9 30.21 1023 10 16.09344 0 0
10:55 pm 22:55 Mostly Cloudy 55 13 52 11 88 88 SSE 6 9 30.21 1023 10 16.09344 0 0
11:15 pm 23:15 Mostly Cloudy 55 13 52 11 88 88 S 6 9 30.21 1023 10 16.09344 0 0
11:35 pm 23:35 Partly Cloudy 55 13 52 11 88 88 S 6 9 30.21 1023 10 16.09344 0 0
11:55 pm 23:55 Clear 55 13 52 11 88 88 S 9 15 30.18 1022 10 16.09344 0 0

Powered by AerisWeather